| time (UTC) | temp F | wind direction | speed MPH | gust MPH | rain 1hr in | rain 24hr in | rain mn in | humidity % | barometer mb |
| 20260906004609 | 74 | 99 | 0.0 | 2.0 | 0.00 | 0.16 | 0.16 | 74 | 1010.6 |
| 20260906003045 | 74 | 223 | 0.0 | 2.0 | 0.00 | 0.16 | 0.16 | 74 | 1010.3 |
| 20260906001507 | 75 | 130 | 0.0 | 3.0 | 0.00 | 0.16 | 0.16 | 74 | 1010.2 |
| 20260906000052 | 75 | 214 | 1.0 | 3.0 | 0.00 | 0.16 | 0.16 | 73 | 1009.9 |
| 20260905234527 | 75 | 155 | 1.0 | 3.0 | 0.00 | 0.16 | 0.16 | 73 | 1009.9 |
| 20260905233106 | 75 | 98 | 1.0 | 4.0 | 0.00 | 0.16 | 0.16 | 73 | 1009.7 |
| 20260905231543 | 76 | 34 | 1.0 | 6.0 | 0.00 | 0.16 | 0.16 | 71 | 1009.6 |
| 20260905230008 | 78 | 156 | 1.0 | 6.0 | 0.00 | 0.16 | 0.16 | 68 | 1009.4 |
| 20260905224549 | 79 | 32 | 2.0 | 7.0 | 0.00 | 0.16 | 0.16 | 55 | 1009.2 |
| 20260905223027 | 79 | 302 | 1.0 | 6.0 | 0.00 | 0.16 | 0.16 | 53 | 1009.3 |
| 20260905221559 | 79 | 30 | 2.0 | 7.0 | 0.00 | 0.16 | 0.16 | 52 | 1009.2 |
| 20260905220028 | 80 | 44 | 3.0 | 9.0 | 0.00 | 0.16 | 0.16 | 51 | 1009.0 |
| 20260905214605 | 80 | 270 | 1.0 | 7.0 | 0.00 | 0.16 | 0.16 | 51 | 1009.0 |
| 20260905213040 | 80 | 277 | 2.0 | 7.0 | 0.00 | 0.16 | 0.16 | 51 | 1008.8 |
| 20260905211513 | 80 | 264 | 2.0 | 7.0 | 0.00 | 0.16 | 0.16 | 52 | 1008.7 |
| 20260905210045 | 80 | 350 | 1.0 | 7.0 | 0.00 | 0.16 | 0.16 | 54 | 1008.8 |
| 20260905204509 | 80 | 56 | 2.0 | 5.0 | 0.00 | 0.16 | 0.16 | 58 | 1008.7 |
| 20260905203059 | 81 | 263 | 1.0 | 5.0 | 0.00 | 0.16 | 0.16 | 55 | 1008.8 |
| 20260905201526 | 82 | 57 | 1.0 | 6.0 | 0.00 | 0.16 | 0.16 | 55 | 1008.9 |
| 20260905194525 | 82 | 146 | 1.0 | 8.0 | 0.00 | 0.16 | 0.16 | 56 | 1009.1 |
| 20260905193110 | 82 | 150 | 1.0 | 4.0 | 0.00 | 0.16 | 0.16 | 56 | 1009.2 |
| 20260905191538 | 82 | 71 | 0.0 | 5.0 | 0.00 | 0.16 | 0.16 | 55 | 1009.3 |
| 20260905190012 | 82 | 233 | 1.0 | 5.0 | 0.00 | 0.16 | 0.16 | 55 | 1009.3 |
| 20260905184550 | 83 | 75 | 1.0 | 4.0 | 0.00 | 0.16 | 0.16 | 54 | 1009.4 |
| 20260905183020 | 82 | 51 | 1.0 | 5.0 | 0.00 | 0.16 | 0.16 | 56 | 1009.5 |
| 20260905181602 | 82 | 74 | 0.0 | 4.0 | 0.00 | 0.16 | 0.16 | 55 | 1009.7 |
| 20260905180034 | 82 | 58 | 2.0 | 6.0 | 0.00 | 0.16 | 0.16 | 56 | 1009.9 |
| 20260905174501 | 82 | 213 | 0.0 | 3.0 | 0.00 | 0.16 | 0.16 | 60 | 1009.9 |
| 20260905173044 | 82 | 28 | 1.0 | 4.0 | 0.00 | 0.16 | 0.16 | 57 | 1010.0 |
| 20260905171521 | 81 | 37 | 1.0 | 5.0 | 0.00 | 0.16 | 0.16 | 59 | 1010.0 |
| 20260905170108 | 79 | 95 | 0.0 | 5.0 | 0.00 | 0.16 | 0.16 | 61 | 1010.1 |
| 20260905164526 | 79 | 210 | 1.0 | 4.0 | 0.00 | 0.16 | 0.16 | 59 | 1010.3 |
| 20260905163107 | 80 | 318 | 1.0 | 5.0 | 0.00 | 0.16 | 0.16 | 61 | 1010.4 |
| 20260905161539 | 78 | 27 | 1.0 | 8.0 | 0.00 | 0.16 | 0.16 | 63 | 1010.4 |
| 20260905160009 | 78 | 204 | 1.0 | 4.0 | 0.00 | 0.16 | 0.16 | 62 | 1010.5 |
| 20260905154551 | 78 | 28 | 1.0 | 7.0 | 0.00 | 0.16 | 0.16 | 64 | 1010.6 |
| 20260905153023 | 77 | 334 | 1.0 | 6.0 | 0.00 | 0.16 | 0.16 | 63 | 1010.6 |
| 20260905151557 | 77 | 153 | 2.0 | 8.0 | 0.00 | 0.16 | 0.16 | 62 | 1010.8 |
| 20260905150027 | 78 | 34 | 0.0 | 8.0 | 0.00 | 0.16 | 0.16 | 64 | 1010.7 |
| 20260905144555 | 78 | 5 | 2.0 | 7.0 | 0.00 | 0.16 | 0.16 | 62 | 1010.5 |
| 20260905143026 | 78 | 266 | 1.0 | 9.0 | 0.00 | 0.16 | 0.16 | 64 | 1010.2 |
| 20260905141603 | 76 | 58 | 1.0 | 8.0 | 0.00 | 0.16 | 0.16 | 68 | 1010.1 |
| 20260905140033 | 76 | 276 | 2.0 | 9.0 | 0.00 | 0.16 | 0.16 | 70 | 1010.0 |
| 20260905134503 | 75 | 66 | 2.0 | 8.0 | 0.00 | 0.16 | 0.16 | 71 | 1010.1 |
| 20260905133043 | 75 | 66 | 2.0 | 7.0 | 0.00 | 0.16 | 0.16 | 74 | 1010.0 |
| 20260905131514 | 74 | 8 | 1.0 | 7.0 | 0.00 | 0.16 | 0.16 | 77 | 1010.0 |
| 20260905130050 | 73 | 299 | 1.0 | 6.0 | 0.00 | 0.16 | 0.16 | 77 | 1010.0 |
| 20260905124518 | 74 | 195 | 1.0 | 6.0 | 0.00 | 0.16 | 0.16 | 77 | 1010.0 |
| 20260905123110 | 74 | 214 | 2.0 | 6.0 | 0.00 | 0.16 | 0.16 | 77 | 1010.1 |
| 20260905121545 | 73 | 15 | 1.0 | 4.0 | 0.00 | 0.16 | 0.16 | 79 | 1010.0 |
| 20260905120009 | 72 | 300 | 2.0 | 5.0 | 0.00 | 0.16 | 0.16 | 79 | 1010.0 |
| 20260905114550 | 72 | 25 | 0.0 | 4.0 | 0.00 | 0.16 | 0.16 | 82 | 1009.8 |
| 20260905113017 | 72 | 297 | 1.0 | 6.0 | 0.00 | 0.16 | 0.16 | 84 | 1009.7 |
| 20260905111606 | 72 | 250 | 1.0 | 6.0 | 0.00 | 0.16 | 0.16 | 85 | 1009.5 |
| 20260905110031 | 72 | 193 | 2.0 | 5.0 | 0.00 | 0.16 | 0.16 | 86 | 1009.3 |
| 20260905104613 | 72 | 31 | 2.0 | 5.0 | 0.00 | 0.16 | 0.16 | 87 | 1009.1 |
| 20260905103033 | 72 | 230 | 0.0 | 2.0 | 0.00 | 0.16 | 0.16 | 89 | 1008.9 |
| 20260905101615 | 72 | 270 | 0.0 | 3.0 | 0.00 | 0.16 | 0.16 | 91 | 1008.9 |
| 20260905100043 | 72 | 238 | 0.0 | 3.0 | 0.00 | 0.16 | 0.16 | 92 | 1008.9 |
| 20260905094511 | 72 | 212 | 0.0 | 1.0 | 0.00 | 0.16 | 0.16 | 93 | 1008.7 |
| 20260905093053 | 72 | 50 | 0.0 | 2.0 | 0.00 | 0.16 | 0.16 | 93 | 1008.7 |
| 20260905091530 | 73 | 218 | 0.0 | 3.0 | 0.00 | 0.16 | 0.16 | 93 | 1008.7 |
| 20260905090135 | 73 | 20 | 0.0 | 2.0 | 0.00 | 0.16 | 0.16 | 93 | 1008.9 |
| 20260905084532 | 73 | 41 | 1.0 | 3.0 | 0.00 | 0.16 | 0.16 | 93 | 1008.8 |
| 20260905083110 | 73 | 94 | 0.0 | 0.0 | 0.00 | 0.16 | 0.16 | 93 | 1008.7 |
| 20260905081542 | 73 | 94 | 0.0 | 1.0 | 0.00 | 0.16 | 0.16 | 93 | 1008.8 |
| 20260905080016 | 73 | 238 | 0.0 | 3.0 | 0.00 | 0.16 | 0.16 | 93 | 1008.9 |
| 20260905074551 | 73 | 23 | 0.0 | 3.0 | 0.00 | 0.24 | 0.16 | 93 | 1008.8 |
| 20260905073023 | 73 | 40 | 1.0 | 3.0 | 0.02 | 0.24 | 0.16 | 93 | 1008.9 |
| 20260905071616 | 73 | 212 | 0.0 | 0.0 | 0.09 | 0.24 | 0.16 | 93 | 1008.8 |
| 20260905070047 | 73 | 195 | 0.0 | 2.0 | 0.11 | 0.24 | 0.16 | 93 | 1008.9 |
| 20260905064511 | 73 | 281 | 0.0 | 1.0 | 0.11 | 0.25 | 0.16 | 92 | 1009.2 |
| 20260905063049 | 73 | 38 | 0.0 | 2.0 | 0.09 | 0.23 | 0.14 | 92 | 1009.6 |
| 20260905061529 | 74 | 270 | 0.0 | 2.0 | 0.01 | 0.15 | 0.06 | 91 | 1010.0 |
| 20260905060058 | 74 | 39 | 0.0 | 2.0 | 0.00 | 0.14 | 0.05 | 91 | 1009.9 |
| 20260905054531 | 74 | 323 | 0.0 | 2.0 | 0.01 | 0.14 | 0.05 | 90 | 1009.8 |
| 20260905053102 | 75 | 358 | 0.0 | 3.0 | 0.03 | 0.14 | 0.05 | 90 | 1009.9 |
| 20260905051532 | 75 | 156 | 1.0 | 3.0 | 0.05 | 0.14 | 0.05 | 90 | 1010.0 |
| 20260905050009 | 75 | 284 | 0.0 | 4.0 | 0.05 | 0.14 | 0.05 | 89 | 1010.1 |
| 20260905044549 | 76 | 58 | 1.0 | 4.0 | 0.04 | 0.13 | 0.04 | 88 | 1010.0 |
| 20260905043018 | 78 | 131 | 1.0 | 5.0 | 0.02 | 0.11 | 0.02 | 87 | 1010.1 |
| 20260905041558 | 78 | 181 | 0.0 | 1.0 | 0.00 | 0.09 | 0.00 | 86 | 1010.0 |
| 20260905040031 | 78 | 333 | 0.0 | 0.0 | 0.00 | 0.09 | 0.00 | 87 | 1009.9 |
| 20260905034617 | 78 | 340 | 0.0 | 0.0 | 0.00 | 0.09 | 0.09 | 87 | 1010.0 |
| 20260905033040 | 78 | 338 | 0.0 | 0.0 | 0.00 | 0.09 | 0.09 | 86 | 1010.1 |
| 20260905031504 | 78 | 337 | 0.0 | 0.0 | 0.00 | 0.09 | 0.09 | 86 | 1010.3 |
| 20260905030046 | 78 | 337 | 0.0 | 0.0 | 0.00 | 0.09 | 0.09 | 86 | 1010.4 |
| 20260905024513 | 79 | 337 | 0.0 | 0.0 | 0.00 | 0.09 | 0.09 | 85 | 1010.3 |
| 20260905023059 | 79 | 336 | 0.0 | 0.0 | 0.00 | 0.09 | 0.09 | 85 | 1010.3 |
| 20260905021535 | 79 | 330 | 0.0 | 0.0 | 0.00 | 0.09 | 0.09 | 84 | 1010.2 |
| 20260905020108 | 79 | 331 | 0.0 | 0.0 | 0.00 | 0.09 | 0.09 | 84 | 1010.2 |
| 20260905014533 | 79 | 241 | 0.0 | 0.0 | 0.00 | 0.09 | 0.09 | 84 | 1010.4 |
| 20260905013008 | 78 | 144 | 0.0 | 0.0 | 0.00 | 0.09 | 0.09 | 83 | 1010.4 |
| 20260905011557 | 79 | 91 | 0.0 | 0.0 | 0.00 | 0.09 | 0.09 | 83 | 1010.3 |
| 20260905010025 | 79 | 77 | 0.0 | 0.0 | 0.00 | 0.09 | 0.09 | 82 | 1010.3 |